Flag for Canada Weather past 2 weeks in Clarington, Ontario, Canada

Now
63 °F

Fog.


Feels Like: 63 °F
Forecast: 59 / 71 °F
Wind: 3 mph from Southwest

Location: Peterborough Airport

Current Time: Jul 1, 2015 at 8:19:02 AM

Latest Report: Jul 1, 2015 at 7:02 AM


Visibility: 3 mi

Pressure: 29.70 "Hg

Humidity: 100%

Dew point: 63 °F

Location of ClaringtonLocation

Historic Weather in Clarington — Graph

°F

Clarington temperature yesterday

Maximum temperature yesterday: 64 °F (at 10:00 AM)
Minimum temperature yesterday: 48 °F (at 6:00 AM)
Average temperature yesterday: 59 °F

Past Weeks' High & Low Weather Summary

 TemperatureHumidityPressure
High79 °F (Jun 18, 2:00 PM)100% (Jun 17, 7:00 AM)30.22 "Hg (Jun 17, 7:00 AM)
Low43 °F (Jun 20, 5:00 AM)33% (Jun 19, 5:00 PM)29.60 "Hg (Jun 23, 6:00 AM)
Average63 °F80%29.93 "Hg
* Reported Jun 16 7:00 AM — Jul 1 7:02 AM, Clarington, Weather by CustomWeather, © 2015

Note: Actual official high and low records may vary slightly from our data, if they occured in-between our weather recording intervals... More about our weather records

Advertising

Clarington weather history for previous 24 hours

 ConditionsComfort  
Time TempWeatherWind HumidityBarometerVisibility
7:02 AM
Wed, Jul 1
63 °FFog.3 mph100%29.70 "Hg3 mi
6:00 AM61 °FFog.3 mph100%29.70 "Hg2 mi
5:59 AM61 °FFog.3 mph100%29.70 "Hg2 mi
5:00 AM63 °FFog.2 mph100%29.70 "Hg1 mi
4:02 AM63 °FFog.No wind94%29.70 "Hg2 mi
3:02 AM63 °FFog.2 mph94%29.71 "Hg1 mi
2:00 AM63 °FLight rain. Fog.3 mph94%29.73 "Hg1 mi
1:00 AM63 °FFog.2 mph94%29.75 "Hg1 mi
12:00 AM63 °FFog.2 mph94%29.76 "Hg1 mi
11:58 PM
Tue, Jun 30
63 °FFog.2 mph94%29.76 "Hg1 mi
11:00 PM63 °FFog.5 mph94%29.77 "Hg6 mi
10:00 PM63 °FFog.3 mph94%29.77 "Hg5 mi
9:00 PM63 °FLow clouds.5 mph94%29.78 "Hg8 mi
8:00 PM63 °FLow clouds.3 mph94%29.78 "Hg9 mi
7:00 PM63 °FLow clouds.5 mph94%29.78 "Hg7 mi
6:55 PM63 °FLow clouds.6 mph94%29.79 "Hg8 mi
6:00 PM63 °FFog.6 mph94%29.79 "Hg5 mi
5:00 PM63 °FLow clouds.7 mph94%29.80 "Hg9 mi
4:02 PM63 °FLow clouds.6 mph94%29.81 "Hg9 mi
3:00 PM61 °FRain. Fog.7 mph94%29.83 "Hg6 mi
2:00 PM61 °FMostly cloudy.7 mph94%29.84 "Hg9 mi
1:03 PM61 °FLight rain. Fog.6 mph94%29.85 "Hg6 mi
12:00 PM63 °FRain. More clouds than sun.9 mph88%29.87 "Hg7 mi
11:46 AM63 °FLight rain. Overcast.7 mph88%29.88 "Hg9 mi
11:00 AM63 °FLight rain. Overcast.7 mph88%29.88 "Hg9 mi
10:52 AM64 °FLight rain. Overcast.6 mph88%29.88 "Hg9 mi
10:00 AM64 °FLight rain. Overcast.5 mph88%29.89 "Hg9 mi
9:51 AM63 °FLight rain. Overcast.No wind94%29.89 "Hg9 mi
9:00 AM61 °FOvercast.3 mph94%29.88 "Hg9 mi
8:00 AM57 °FMostly cloudy.2 mph94%29.89 "Hg9 mi
Weather by CustomWeather, © 2015

See weather overviewHow to use our weather pages